Simultaneous Nadir Overpasses (SNOs) Predictions

Prediction of SNOs between LANDSAT-8 and NOAA-19 Satellite Orbit:

Table of predicted SNOs for the next 14.0 days since TLE Epoch: 9/28/2014
Index Date (LANDSAT-8) Time (LANDSAT-8) Lat,Lon (LANDSAT-8) SZA (LANDSAT-8 ) Date (NOAA-19) Time (NOAA-19) Lat,Lon (NOAA-19) SZA (NOAA-19 ) Distance(km) Time Diff (sec)
1 09/29/2014 05:56:03 72.37, 90.97 74.68 09/29/2014 05:54:50 72.46, 90.66 74.76 14.22 73
2 09/29/2014 06:45:34 -72.22,-101.68 105.47 09/29/2014 06:45:41 -72.24,-101.62 105.45 3.08 7
3 10/01/2014 11:29:56 -72.28,-172.66 104.55 10/01/2014 11:29:27 -72.30,-172.66 104.53 2.18 29
4 10/01/2014 12:19:23 72.19, -5.19 75.37 10/01/2014 12:20:33 72.20, -5.23 75.39 1.99 70
5 10/03/2014 16:14:20 -72.36, 116.38 103.61 10/03/2014 16:13:12 -72.33, 116.37 103.65 3.18 68
6 10/03/2014 17:03:48 72.21, -76.25 76.25 10/03/2014 17:04:18 72.22, -76.19 76.27 2.21 30
7 10/05/2014 21:48:14 72.30,-147.20 77.19 10/05/2014 21:48:04 72.31,-147.28 77.20 3.08 10
8 10/05/2014 22:37:44 -72.20, 20.26 102.90 10/05/2014 22:38:57 -72.20, 20.21 102.90 1.49 73
9 10/08/2014 02:32:43 72.35, 141.76 78.08 10/08/2014 02:31:49 72.37, 141.70 78.10 3.10 54
10 10/08/2014 03:22:13 -72.25, -50.78 102.01 10/08/2014 03:22:42 -72.25, -50.80 102.00 0.60 29
11 10/10/2014 08:06:44 -72.31,-121.81 101.11 10/10/2014 08:06:27 -72.32,-121.83 101.10 1.21 17




NCC Satellite Simultaneous Nadir Overpasses (SNOs) Prediction Service
